Regional Weather Roundup
Issued by NWS

Home | Current Version | Previous Version | Text Only | Print | Product List | Glossary On
Versions: 1 2 3 4 5 6 7 8 9 10 11 12 13 14 15 16 17 18 19 20 21 22 23 24 25 26 27 28 29 30 31 32 33 34 35 36 37 38 39 40 41 42 43 44 45 46 47 48 49 50
000
ASUS44 KJAN 030203
RWRMS

MISSISSIPPI HOURLY WEATHER ROUNDUP
NATIONAL WEATHER SERVICE JACKSON MS
900 PM CDT THU JUL 02 2015

NOTE: "FAIR: INDICATES FEW OR NO CLOUDS BELOW 12,000 FEET WITH NO
SIGNIFICANT WEATHER AND/OR OBSTRUCTIONS TO VISIBILITY.

MSZ001>002-007>008-010>013-018>021-025>028-034>036-030300-
NORTHWEST MISSISSIPPI

CITY           SKY/WX    TMP DP  RH WIND       PRES   REMARKS
CLARKSDALE     FAIR      82  73  74 SW9       29.89F
CLEVELAND      FAIR      81  77  88 SW7       29.90F
GREENWOOD      PTCLDY    79  73  82 S8        29.93R
GREENVILLE     MOCLDY    84  73  69 SW12      29.91S HX  90
OLIVE BRANCH   CLEAR     79  75  89 S8        29.86F
TUNICA         MOCLDY    82  70  65 SW13      29.87F
$$

MSZ003>006-009-014>017-022>024-029>033-037>039-030300-
NORTHEAST MISSISSIPPI

CITY           SKY/WX    TMP DP  RH WIND       PRES   REMARKS
COLUMBUS AFB   MOCLDY    79  74  84 S3        29.93R
CORINTH        FAIR      79  70  73 S6        29.89S
GOLDN TRIANGLE MOCLDY    79  72  78 SW6       29.94R
STARKVILLE     FAIR      77  73  88 CALM      29.95R
TUPELO         MOCLDY    79  74  84 SW7       29.91S
$$

MSZ040-058-030300-
CENTRAL MISSISSIPPI

CITY           SKY/WX    TMP DP  RH WIND       PRES   REMARKS
JACKSON INTL   MOCLDY    80  73  79 S6        29.98R
JACKSON HAWKNS MOCLDY    81  73  76 SW5       29.98R
MERIDIAN KEY   CLOUDY    80  73  79 SW8       29.99R
MERIDIAN NAS   CLOUDY    80  74  81 S3        29.98R
VICKSBURG      PTCLDY    82  75  79 S5        29.96R
$$

MSZ059>079-030300-
SOUTH MISSISSIPPI

CITY           SKY/WX    TMP DP  RH WIND       PRES   REMARKS
BROOKHAVEN       N/A     79  75  89 S3        30.02R
HATTIESBURG    PTCLDY    83  75  77 S5        30.01R HX  90
MCCOMB         PTCLDY    80  77  90 S6        30.01S
NATCHEZ        PTCLDY    81  73  78 S5        30.00R
PINE BELT      MOCLDY    81 N/A N/A S5        30.02R
$$

MSZ080>082-030300-
COASTAL MISSISSIPPI

CITY           SKY/WX    TMP DP  RH WIND       PRES   REMARKS
BAY ST LOUIS   CLEAR     81  72  74 MISG      30.02S
BILOXI         NOT AVBL
PASCAGOULA     PTCLDY    81  76  84 S5        30.03S
GULFPORT       PTCLDY    83  74  74 S6        30.02S
$$



USA.gov is the U.S. government's official web portal to all federal, state and local government web resources and services.